DECAYED

STARLINK-1959, 47560 (Decayed)

Orbit data source: Space-Track

STARLINK-1959, 47560 was a payload satellite owned by SpaceX/Seattle (US) in LEO that was launched on Thu, 04 Feb 2021 UTC via an FALCON 9 launch vehicle from the Air Force Eastern Test Range (AFETR). Payload-class satellites include a variety of spacecraft equipped with specific instruments for various scientific and technological missions. These include communications satellites like Starlink; space stations such as the ISS; scientific satellites like the Hubble; Earth observation satellites from companies like Planet Labs, Umbra, and HawkEye 360; GPS; miniature CubeSats for education and research; and military/defense satellites.

Not visible in the next 10 days
Identifier
47560, 2021-009N
Orbit
Decayed
Country
Flag of USUS
Related business
Manufacturer
SpaceX/Seattle
Mission
Decayed Commercial Communications
Bus & Motor
STARLINK, Unknown motor
Mass
260 kg wet, ~248 kg dry
Launch date (UTC)
2021-02-04 (5 years ago)
Launch vehicle
FALCON 9
Launch site
Air Force Eastern Test Range (AFETR)
Object type
Payload
Rocket body
Debris
Shape & HBR
Box + 1 Pan, 10.1 m
Radar Cross Section
13.562 m², Large (>1 m²)

Expand to show TLE details & history
Last TLE update: 1 year ago

TLE from 1 year ago
0 STARLINK-1959
1 47560U 21009N   25187.35825235  .16272777  12529-4  35472-3 0  9996
2 47560  53.0139 330.2555 0010257 271.0133 180.9011 16.45861438245355
Epoch: 2025-07-06T08:35Z
TLE epoch observation values (Epoch: 2025-07-06T08:35:53.003Z)
Latitude
53.13037°
Longitude
9.8822°
Altitude
163.411 km
Speed
7.811 km/s
True Right ascension
04h 13m 44s
True Declination
52° 57' 00"
Sunlit
Object was in daylight at epoch
Visualization orbit readout
Latitude
Unknown
Longitude
Unknown
Altitude
Unknown
Speed
Unknown
Apparent Right ascension
Unknown
Apparent Declination
Unknown
Sunlit
N/A
Visualization observer readout
Local Sidereal Time
21:28:03
Azimuth
Unknown
Elevation
Unknown
Doppler factor
Unknown
Orbital elements
Apogee altitude
157.247 km
Perigee altitude
143.854 km
Semi-major axis
6,528.687 km
Eccentricity
0.00103
Inclination
53.0139°
RAAN
330.2555°
Arg. of periapsis
271.0133°
True anomaly
180.89925°
Mean anomaly
180.9011°
Eccentric anomaly
180.90018°
Mean motion
4.11438 °/min
Orbital period
87.5 mins
BSTAR
0.00035472
Loading maneuver chart data...
Computing Atmospheric mass density...

Documentation

Showing up to 5 results
|